TimeAKST,TemperatureF,Dew PointF,Humidity,Sea Level PressureIn,VisibilityMPH,Wind Direction,Wind SpeedMPH,Gust SpeedMPH,PrecipitationIn,Events,Conditions,WindDirDegrees,DateUTC
12:53 AM,42.1,37.9,85,29.94,10.0,Calm,Calm,-,N/A,,Partly Cloudy,0,2012-11-15 09:53:00
1:53 AM,37.9,37.0,97,29.94,8.0,Calm,Calm,-,N/A,,Clear,0,2012-11-15 10:53:00
2:53 AM,39.9,37.9,93,29.93,10.0,SE,4.6,-,N/A,,Overcast,130,2012-11-15 11:53:00
3:53 AM,43.0,37.9,82,29.91,10.0,South,6.9,-,N/A,,Mostly Cloudy,190,2012-11-15 12:53:00
4:53 AM,42.1,37.0,82,29.90,10.0,ESE,3.5,-,N/A,,Mostly Cloudy,110,2012-11-15 13:53:00
5:53 AM,44.1,37.9,79,29.90,10.0,Variable,5.8,-,N/A,,Overcast,0,2012-11-15 14:53:00
6:53 AM,43.0,39.0,86,29.89,10.0,SW,8.1,18.4,0.00,Rain,Light Rain,220,2012-11-15 15:53:00
7:53 AM,42.1,39.0,89,29.89,9.0,SSW,6.9,-,0.02,Rain,Light Rain,210,2012-11-15 16:53:00
8:30 AM,42.8,39.2,87,29.88,9.0,South,4.6,-,0.02,Rain,Light Rain,170,2012-11-15 17:30:00
8:53 AM,42.1,39.9,92,29.88,10.0,SE,5.8,-,0.03,,Overcast,130,2012-11-15 17:53:00
9:00 AM,42.8,39.2,87,29.87,10.0,SE,4.6,-,N/A,,Overcast,140,2012-11-15 18:00:00
9:08 AM,42.8,39.2,87,29.87,10.0,ESE,4.6,-,N/A,,Overcast,120,2012-11-15 18:08:00
9:35 AM,42.8,39.2,87,29.86,10.0,Calm,Calm,-,N/A,,Overcast,0,2012-11-15 18:35:00
9:53 AM,43.0,39.9,89,29.86,10.0,SSE,4.6,-,N/A,,Overcast,150,2012-11-15 18:53:00
10:09 AM,42.8,39.2,87,29.86,10.0,SE,4.6,-,0.00,Rain,Light Rain,140,2012-11-15 19:09:00
10:53 AM,43.0,39.9,89,29.84,10.0,ESE,5.8,-,0.00,,Overcast,120,2012-11-15 19:53:00
11:53 AM,45.0,39.9,82,29.82,10.0,SE,6.9,-,0.00,,Overcast,130,2012-11-15 20:53:00
12:06 PM,44.6,39.2,81,29.81,10.0,SE,6.9,-,N/A,,Overcast,140,2012-11-15 21:06:00
12:53 PM,45.0,41.0,86,29.80,10.0,SE,5.8,-,N/A,,Overcast,140,2012-11-15 21:53:00
1:53 PM,45.0,39.9,82,29.78,10.0,SSE,8.1,-,0.00,,Overcast,150,2012-11-15 22:53:00
2:08 PM,44.6,39.2,81,29.76,10.0,SE,8.1,-,0.00,Rain,Light Rain,140,2012-11-15 23:08:00
2:53 PM,45.0,39.9,82,29.75,10.0,SE,6.9,-,0.00,,Overcast,140,2012-11-15 23:53:00
3:25 PM,44.6,39.2,81,29.73,10.0,SE,9.2,-,N/A,,Overcast,140,2012-11-16 00:25:00
3:53 PM,45.0,39.9,82,29.73,10.0,SE,9.2,20.7,N/A,,Overcast,140,2012-11-16 00:53:00
4:53 PM,44.1,39.9,85,29.70,10.0,ESE,9.2,-,0.00,,Overcast,120,2012-11-16 01:53:00
5:53 PM,43.0,39.0,86,29.67,10.0,ESE,9.2,-,0.00,,Overcast,110,2012-11-16 02:53:00
6:53 PM,43.0,37.0,80,29.64,10.0,ESE,9.2,-,0.00,,Overcast,120,2012-11-16 03:53:00
7:53 PM,44.1,37.0,76,29.60,10.0,ESE,8.1,-,N/A,,Overcast,110,2012-11-16 04:53:00
8:53 PM,44.1,37.0,76,29.56,10.0,ESE,16.1,24.2,0.00,Rain,Light Rain,120,2012-11-16 05:53:00
9:53 PM,42.1,37.9,85,29.53,8.0,East,15.0,27.6,0.04,Rain,Light Rain,100,2012-11-16 06:53:00
10:31 PM,42.8,39.2,87,29.50,5.0,ESE,15.0,28.8,0.07,Rain,Heavy Rain,110,2012-11-16 07:31:00
10:53 PM,42.1,39.0,89,29.50,6.0,ESE,13.8,23.0,0.15,Rain,Rain,110,2012-11-16 07:53:00
11:53 PM,42.1,37.9,85,29.44,6.0,ESE,18.4,27.6,0.23,Rain,Rain,110,2012-11-16 08:53:00